This is the latest recevied weather packets stored in our database for station/object F4LNO-10. If no packets are shown the sender has not sent any weather packets the latest 10 day(s).
| Time | Temp. | Humidity | Pressure | Rain* | Wind** | Luminosity | Snow |
|---|---|---|---|---|---|---|---|
| 1777594867 | 23.33° C | 52% | 1021.8 hPa | - | - | - | - |
| 1777593966 | 23.33° C | 52% | 1021.7 hPa | - | - | - | - |
| 1777593065 | 23.33° C | 52% | 1021.6 hPa | - | - | - | - |
| 1777592164 | 23.33° C | 53% | 1021.5 hPa | - | - | - | - |
| 1777591264 | 23.33° C | 52% | 1021.5 hPa | - | - | - | - |
| 1777590363 | 23.33° C | 52% | 1021.5 hPa | - | - | - | - |
| 1777589462 | 23.33° C | 52% | 1021.3 hPa | - | - | - | - |
| 1777588561 | 23.33° C | 52% | 1021.2 hPa | - | - | - | - |
| 1777587660 | 23.33° C | 52% | 1021.2 hPa | - | - | - | - |
| 1777586759 | 23.33° C | 52% | 1021.1 hPa | - | - | - | - |
| 1777585859 | 23.33° C | 53% | 1021.1 hPa | - | - | - | - |
| 1777584958 | 23.33° C | 54% | 1021.2 hPa | - | - | - | - |
| 1777584057 | 23.33° C | 53% | 1021.2 hPa | - | - | - | - |
| 1777583156 | 23.89° C | 53% | 1021.2 hPa | - | - | - | - |
| 1777582255 | 21.67° C | 57% | 1021.2 hPa | - | - | - | - |
| 1777581355 | 22.78° C | 59% | 1021.3 hPa | - | - | - | - |
| 1777581354 | 22.78° C | 59% | 1021.3 hPa | - | - | - | - |
| 1777580453 | 23.33° C | 52% | 1021.1 hPa | - | - | - | - |
| 1777579553 | 23.33° C | 53% | 1020.9 hPa | - | - | - | - |
| 1777578652 | 23.33° C | 54% | 1020.7 hPa | - | - | - | - |
| 1777577770 | 23.33° C | 53% | 1020.6 hPa | - | - | - | - |
| 1777576870 | 23.33° C | 52% | 1020.6 hPa | - | - | - | - |
| 1777575969 | 23.33° C | 53% | 1020.5 hPa | - | - | - | - |
| 1777575068 | 23.33° C | 53% | 1020.5 hPa | - | - | - | - |
| 1777574167 | 23.33° C | 52% | 1020.5 hPa | - | - | - | - |
* Rain since midnight (hover to see other rain measurements)
** Current wind speed in m/s (hover to see current wind gust speed)